TimeEDT,TemperatureF,Dew PointF,Humidity,Sea Level PressureIn,VisibilityMPH,Wind Direction,Wind SpeedMPH,Gust SpeedMPH,PrecipitationIn,Events,Conditions,WindDirDegrees,DateUTC
12:51 AM,71.1,64.9,81,30.01,7.0,SE,8.1,-,N/A,,Scattered Clouds,130,2013-10-07 04:51:00
1:51 AM,70.0,64.9,84,30.00,7.0,SE,3.5,-,N/A,,Clear,140,2013-10-07 05:51:00
2:51 AM,70.0,64.9,84,29.99,8.0,SSE,4.6,-,N/A,,Partly Cloudy,150,2013-10-07 06:51:00
3:51 AM,70.0,64.9,84,29.96,6.0,SSE,4.6,-,N/A,,Haze,160,2013-10-07 07:51:00
4:51 AM,70.0,66.0,87,29.95,8.0,South,6.9,-,N/A,,Scattered Clouds,190,2013-10-07 08:51:00
5:51 AM,71.1,66.0,84,29.94,9.0,South,9.2,-,N/A,,Mostly Cloudy,180,2013-10-07 09:51:00
6:51 AM,72.0,66.9,84,29.93,8.0,SSE,8.1,-,N/A,,Overcast,160,2013-10-07 10:51:00
7:06 AM,71.6,66.2,83,29.93,7.0,South,9.2,-,N/A,,Overcast,170,2013-10-07 11:06:00
7:51 AM,73.0,66.0,79,29.92,10.0,South,10.4,-,N/A,,Overcast,170,2013-10-07 11:51:00
8:24 AM,73.4,66.2,78,29.91,7.0,SSE,8.1,-,N/A,,Overcast,160,2013-10-07 12:24:00
8:46 AM,73.4,66.2,78,29.90,7.0,SSE,10.4,-,N/A,,Overcast,160,2013-10-07 12:46:00
8:51 AM,73.9,66.9,79,29.90,7.0,SSE,10.4,-,N/A,,Overcast,160,2013-10-07 12:51:00
9:51 AM,75.9,66.9,74,29.88,10.0,SSE,13.8,20.7,N/A,,Overcast,160,2013-10-07 13:51:00
10:51 AM,75.9,66.0,71,29.86,10.0,SSE,16.1,24.2,N/A,,Overcast,160,2013-10-07 14:51:00
11:30 AM,73.4,66.2,78,29.84,2.0,SSE,12.7,21.9,0.02,Rain,Light Rain,160,2013-10-07 15:30:00
11:40 AM,73.4,68.0,83,29.84,6.0,South,11.5,-,0.03,Rain,Light Rain,170,2013-10-07 15:40:00
11:51 AM,73.9,68.0,82,29.83,7.0,SSE,11.5,-,0.03,Rain,Light Rain,160,2013-10-07 15:51:00
12:20 PM,75.2,69.8,83,29.82,10.0,SSE,16.1,-,0.00,,Overcast,160,2013-10-07 16:20:00
12:40 PM,73.4,69.8,88,29.80,2.0,SSE,17.3,25.3,0.01,Rain,Light Rain,160,2013-10-07 16:40:00
12:46 PM,73.4,69.8,88,29.80,2.0,South,18.4,26.5,0.03,Rain,Light Rain,170,2013-10-07 16:46:00
12:51 PM,73.0,69.1,87,29.80,4.0,South,12.7,24.2,0.05,Rain,Light Rain,180,2013-10-07 16:51:00
1:40 PM,77.0,69.8,78,29.77,5.0,SSE,18.4,24.2,0.00,,Haze,160,2013-10-07 17:40:00
1:51 PM,78.1,69.1,74,29.76,5.0,South,16.1,24.2,0.00,,Haze,170,2013-10-07 17:51:00
2:51 PM,78.1,66.9,68,29.75,10.0,South,18.4,24.2,N/A,,Overcast,170,2013-10-07 18:51:00
3:33 PM,71.6,62.6,73,29.80,6.0,SW,15.0,31.1,0.04,Rain,Rain,230,2013-10-07 19:33:00
3:51 PM,70.0,64.0,81,29.80,7.0,SW,11.5,18.4,0.08,Rain,Light Rain,220,2013-10-07 19:51:00
4:28 PM,68.0,64.4,88,29.81,2.5,South,8.1,-,0.06,Rain,Heavy Rain,190,2013-10-07 20:28:00
4:40 PM,68.0,64.4,88,29.81,3.0,South,9.2,-,0.10,Rain,Rain,190,2013-10-07 20:40:00
4:51 PM,68.0,64.0,87,29.81,3.0,South,8.1,-,0.12,Rain,Light Rain,170,2013-10-07 20:51:00
5:35 PM,69.8,62.6,78,29.83,10.0,SSW,11.5,-,0.02,Rain,Light Rain,200,2013-10-07 21:35:00
5:51 PM,68.0,61.0,78,29.86,4.0,WNW,23.0,33.4,0.02,Rain,Rain,290,2013-10-07 21:51:00
5:58 PM,64.4,57.2,77,29.87,4.0,West,16.1,33.4,0.01,Rain,Light Rain,270,2013-10-07 21:58:00
6:07 PM,64.4,57.2,77,29.88,4.0,West,10.4,20.7,0.01,Rain,Light Rain,270,2013-10-07 22:07:00
6:22 PM,64.4,57.2,77,29.88,6.0,West,8.1,-,0.01,Rain,Light Rain,260,2013-10-07 22:22:00
6:51 PM,64.0,57.0,78,29.88,10.0,Variable,4.6,-,0.01,,Overcast,0,2013-10-07 22:51:00
7:51 PM,64.0,55.0,73,29.91,10.0,West,5.8,-,N/A,,Overcast,270,2013-10-07 23:51:00
8:51 PM,63.0,54.0,72,29.92,10.0,West,5.8,-,N/A,,Overcast,260,2013-10-08 00:51:00
9:51 PM,62.1,53.1,72,29.93,10.0,West,5.8,-,N/A,,Mostly Cloudy,280,2013-10-08 01:51:00
10:51 PM,62.1,51.1,67,29.95,10.0,NW,5.8,-,N/A,,Mostly Cloudy,310,2013-10-08 02:51:00
11:51 PM,61.0,48.0,62,29.98,10.0,NW,4.6,-,N/A,,Clear,320,2013-10-08 03:51:00